Alabaster, AL

8:55 PM CST on February 24, 2017 (GMT -0600)
Shelby County

Weather History for KEET - February, 2014

Change the Weather History Date:

Friday, February 21, 2014

  Actual Average Record
Temperature  
Mean Temperature 54 °F 50 °F  
Max Temperature 66 °F 61 °F 75 °F (1976)
Min Temperature 42 °F 39 °F 15 °F (1958)
Degree Days  
Heating Degree Days 11 15  
Month to date heating degree days 349 364  
Since 1 July heating degree days 2160 2028  
Growing Degree Days 4 (Base 50)    
Moisture  
Dew Point 45 °F    
Average Humidity 61    
Maximum Humidity 100    
Minimum Humidity 22    
Precipitation  
Precipitation 0.77 in 0.20 in 3.52 in (1961)
Month to date precipitation 4.68 4.32  
Year to date precipitation 7.61 9.65  
Snow  
Snow 0.00 in - - ()
Month to date snowfall 0.3  
Since 1 July snowfall 1.3  
Snow Depth 0.00 in    
Sea Level Pressure  
Sea Level Pressure 29.99 in    
Wind  
Wind Speed 7 mph (WNW)    
Max Wind Speed 29 mph    
Max Gust Speed 39 mph    
Visibility 7 miles    
Events Rain , Thunderstorm    
T = Trace of Precipitation, MM = Missing Value Source: NWS Daily Summary

Daily Weather History Graph

Daily Weather History Graph

Search for Another Location

Airport or City:

Trip Planner

Search our weather history database for the weather conditions in past years. The results will help you decide how hot, cold, wet, or windy it might be!

Date:

Astronomy

Feb. 21, 2014 Rise Set
Actual Time 6:24 AM CST 5:37 PM CST
Civil Twilight 5:59 AM CST 6:02 PM CST
Nautical Twilight 5:30 AM CST 6:31 PM CST
Astronomical Twilight 5:01 AM CST 7:00 PM CST
Moon No Moon Rise 10:08 AM CST (2/21)
Length of Visible Light 12h 03m
Length of Day
11h 13m
Waning Gibbous, 60% of the Moon is Illuminated
Feb 21
Waning Gibbous
Feb 22
Last Quarter
Mar 1
New
Mar 8
First Quarter
Mar 16
Full

Hourly Weather History & Observations

Time (CST) Temp. Windchill Dew Point Humidity Pressure Visibility Wind Dir Wind Speed Gust Speed Precip Events Conditions
12:06 AM 64.9 °F - 63.0 °F 93% 29.85 in 4.0 mi SW 5.8 mph - 0.02 in Rain Rain
12:16 AM 64.0 °F - 63.0 °F 96% 29.84 in 4.0 mi Variable 5.8 mph - 0.04 in Rain Rain
12:49 AM 64.4 °F - 64.4 °F 100% 29.85 in 4.0 mi WSW 5.8 mph - 0.10 in Rain , Thunderstorm Rain
12:53 AM 64.0 °F - 64.0 °F 100% 29.84 in 1.5 mi Variable 6.9 mph - 0.18 in Rain , Thunderstorm Heavy Thunderstorms and Rain
1:02 AM 64.9 °F - 64.0 °F 97% 29.86 in 2.0 mi SSW 9.2 mph - 0.04 in Rain , Thunderstorm Heavy Thunderstorms and Rain
1:10 AM 64.9 °F - 64.0 °F 97% 29.85 in 2.0 mi North - - 0.09 in Rain , Thunderstorm Heavy Thunderstorms and Rain
1:17 AM 64.9 °F - 64.0 °F 97% 29.86 in 1.2 mi SW 13.8 mph 27.6 mph 0.18 in Rain , Thunderstorm Heavy Thunderstorms and Rain
1:21 AM 64.9 °F - 64.0 °F 97% 29.86 in 1.5 mi SW 13.8 mph 27.6 mph 0.21 in Rain , Thunderstorm Heavy Rain
1:28 AM 64.0 °F - 64.0 °F 100% 29.86 in 2.5 mi SW 15.0 mph 34.5 mph 0.23 in Rain Rain
1:36 AM 63.0 °F - 61.0 °F 93% 29.88 in 4.0 mi SSW 20.7 mph 36.8 mph 0.25 in Rain , Thunderstorm Rain
1:49 AM 62.6 °F - 62.6 °F 100% 29.88 in 2.5 mi SW 12.7 mph 24.2 mph 0.32 in Rain Heavy Rain
1:53 AM 64.0 °F - 62.1 °F 93% 29.87 in 3.0 mi SSW 13.8 mph 24.2 mph 0.34 in Rain , Thunderstorm Thunderstorms and Rain
2:07 AM 64.0 °F - 62.1 °F 93% 29.87 in 2.5 mi SW 8.1 mph - 0.07 in Rain Heavy Rain
2:15 AM 63.0 °F - 62.1 °F 97% 29.88 in 2.5 mi WNW 11.5 mph 17.3 mph 0.12 in Rain Heavy Rain
2:19 AM 61.0 °F - 60.1 °F 97% 29.89 in 2.5 mi NW 21.9 mph 28.8 mph 0.13 in Rain , Thunderstorm Heavy Thunderstorms and Rain
2:28 AM 55.0 °F - 53.1 °F 93% 29.94 in 3.0 mi NW 27.6 mph 39.1 mph 0.17 in Rain , Thunderstorm Heavy Thunderstorms and Rain
2:34 AM 50.0 °F - 48.0 °F 93% 29.94 in 3.0 mi NNW 21.9 mph 39.1 mph 0.19 in Rain Rain
2:53 AM 48.0 °F - 45.0 °F 89% 29.94 in 4.0 mi NW 17.3 mph 27.6 mph 0.24 in Rain Rain
3:27 AM 48.0 °F - 45.0 °F 89% 29.96 in 10.0 mi NW 16.1 mph 26.5 mph 0.01 in Rain Light Rain
3:53 AM 48.0 °F - 45.0 °F 89% 29.99 in 10.0 mi NW 11.5 mph 21.9 mph 0.01 in   Overcast
4:27 AM 48.0 °F - 39.0 °F 71% 30.01 in 10.0 mi NNW 11.5 mph 21.9 mph N/A   Overcast
4:53 AM 46.9 °F - 36.0 °F 66% 30.01 in 10.0 mi NNW 10.4 mph - N/A   Overcast
5:53 AM 45.0 °F 41.2 °F 36.0 °F 71% 30.04 in 10.0 mi NNW 6.9 mph - N/A   Partly Cloudy
6:53 AM 44.1 °F 40.1 °F 36.0 °F 73% 30.07 in 10.0 mi NNW 6.9 mph - N/A   Clear
7:53 AM 46.0 °F 43.1 °F 37.9 °F 73% 30.09 in 10.0 mi NNW 5.8 mph - N/A   Clear
8:53 AM 48.9 °F - 34.0 °F 56% 30.09 in 10.0 mi NNW 10.4 mph 20.7 mph N/A   Clear
9:53 AM 53.1 °F - 30.9 °F 43% 30.11 in 10.0 mi NW 11.5 mph 18.4 mph N/A   Clear
10:53 AM 54.0 °F - 28.9 °F 38% 30.10 in 10.0 mi NNW 10.4 mph - N/A   Clear
11:53 AM 55.9 °F - 27.0 °F 33% 30.10 in 10.0 mi NNW 12.7 mph 18.4 mph N/A   Clear
12:53 PM 55.9 °F - 24.1 °F 29% 30.08 in 10.0 mi WNW 6.9 mph - N/A   Clear
1:53 PM 59.0 °F - 21.9 °F 24% 30.07 in 10.0 mi North 6.9 mph - N/A   Clear
2:53 PM 60.1 °F - 21.9 °F 23% 30.08 in 10.0 mi Variable 3.5 mph - N/A   Clear
3:53 PM 57.9 °F - 21.0 °F 24% 30.08 in 10.0 mi Calm Calm - N/A   Clear
4:53 PM 57.9 °F - 19.0 °F 22% 30.08 in 10.0 mi WNW 3.5 mph - N/A   Clear
5:53 PM 53.1 °F - 33.1 °F 47% 30.08 in 10.0 mi Calm Calm - N/A   Clear
6:53 PM 50.0 °F - 30.9 °F 48% 30.10 in 10.0 mi Calm Calm - N/A   Clear
7:53 PM 46.9 °F - 36.0 °F 66% 30.10 in 10.0 mi Calm Calm - N/A   Clear
8:53 PM 46.0 °F - 36.0 °F 68% 30.11 in 10.0 mi Calm Calm - N/A   Clear
9:53 PM 45.0 °F - 36.0 °F 71% 30.11 in 10.0 mi Calm Calm - N/A   Clear
10:53 PM 43.0 °F - 35.1 °F 74% 30.11 in 10.0 mi Calm Calm - N/A   Clear
11:53 PM 42.1 °F - 34.0 °F 73% 30.12 in 10.0 mi Calm Calm - N/A   Clear